Wind_Speed
13 13 13 14 15 16 17 17 17 17 18 19 19 20 21 21 22 23 24 25 25 26 27 27 27 27 27 27 28 29 29 30 30 30 31 31 32 32
13 14 15 16 16 17 17 17 18 19 19 20 20 21 22 22 24 24 25 26 27 27 28 28 29 29 29 30 31 31 32 32 33 32 32 33 34 35
15 16 17 17 17 17 18 19 19 20 21 22 22 23 23 24 25 25 26 27 28 28 29 30 30 31 32 33 33 33 34 34 35 35 35 36 36 36
15 16 17 17 18 19 19 20 21 22 22 23 24 25 25 26 26 27 27 28 29 29 30 31 32 33 33 34 35 35 35 36 36 36 37 38 38 38
16 17 18 19 19 20 20 21 23 24 24 24 25 25 26 27 27 28 29 29 30 30 31 32 33 34 35 35 36 36 37 36 37 37 38 38 39 39
16 17 18 19 21 21 22 23 24 25 25 26 26 27 27 28 29 30 31 31 32 32 32 33 34 35 35 36 36 36 37 37 38 38 38 39 39 40
17 18 19 20 22 23 24 24 25 25 25 26 27 28 29 29 30 31 31 32 32 32 33 34 34 35 36 36 36 36 37 37 38 38 39 40 40 41
18 19 20 21 22 23 24 24 25 26 27 28 29 29 29 31 31 31 32 32 33 33 34 34 35 36 36 37 37 37 38 38 39 39 40 40 40 41
20 21 22 23 24 25 25 25 25 27 28 28 29 29 30 30 31 32 32 33 33 33 34 35 36 37 37 37 39 40 40 40 40 41 41 42 42 42
21 22 23 24 24 25 25 26 26 27 27 27 28 29 29 30 31 32 34 34 35 35 35 36 37 38 39 39 39 40 41 41 41 42 42 42 43 43
23 24 24 25 25 25 26 26 26 27 27 28 29 30 30 31 32 33 33 34 35 35 36 36 37 38 39 39 39 40 40 40 41 41 42 42 42 43
24 25 25 25 25 26 26 26 27 27 28 29 29 29 30 31 32 33 34 35 35 36 36 37 37 38 38 38 39 39 39 40 40 40 41 41 41 42
25 25 25 26 26 26 27 27 27 28 29 29 30 30 30 31 31 32 33 34 34 35 36 36 36 36 37 37 38 38 39 38 38 39 39 39 39 40
25 25 26 26 26 27 27 28 29 29 30 30 31 31 32 32 32 33 33 34 34 34 35 35 36 36 37 37 37 38 38 38 38 38 37 37 37 38
25 26 26 26 27 27 28 29 29 30 31 31 32 32 33 32 32 32 32 33 33 34 34 34 35 35 36 36 36 36 36 36 36 35 35 35 36 36
26 26 26 27 27 27 28 29 30 31 31 32 32 32 32 32 31 31 32 32 33 33 33 33 34 34 35 35 35 35 34 34 33 33 34 34 33 33
27 27 27 27 27 28 28 29 30 31 31 31 32 32 32 31 31 31 31 32 32 32 32 32 32 33 33 33 33 33 33 32 32 33 32 32 32 32
27 27 27 28 28 29 29 30 30 30 31 31 31 31 31 30 30 30 30 29 29 30 31 31 31 30 31 31 31 30 30 30 30 30 30 30 30 30
27 27 28 28 29 29 30 30 30 31 31 31 30 30 29 29 29 29 29 28 28 29 29 29 29 28 28 28 28 28 28 28 28 28 28 28 28 28
27 27 28 28 29 29 30 30 31 31 31 30 30 29 28 28 28 28 28 28 29 29 29 28 28 27 27 27 27 27 27 27 26 26 26 26 26 26
27 27 28 28 29 29 30 30 30 30 30 29 29 28 28 28 28 28 29 29 29 28 28 27 27 27 26 26 26 26 26 26 26 25 25 25 24 24
27 28 28 28 29 29 29 29 29 29 29 28 28 28 28 28 28 29 29 29 28 28 27 26 26 25 25 25 25 25 25 25 25 25 25 24 24 23
28 28 28 28 29 28 29 29 28 28 28 27 27 28 28 28 29 29 28 28 27 26 25 25 25 25 25 25 25 25 25 25 24 24 24 24 24 23
Wind_Direction
278 280 279 279 277 278 281 280 280 280 280 281 280 281 281 281 281 280 279 279 277 274 274 275 275 275 275 275 276 275 274 274 274 273 271 270 270 271
285 283 282 281 280 281 282 282 282 282 284 282 280 281 282 282 284 284 283 281 279 277 276 276 276 274 274 275 276 276 275 275 274 275 273 272 272 272
284 284 284 282 283 285 285 285 285 285 284 282 281 282 282 282 284 284 284 282 282 279 278 277 276 275 274 275 276 276 275 275 275 273 272 272 272 271
288 286 284 284 285 287 288 287 287 288 287 286 283 283 285 285 285 285 284 283 283 281 279 278 277 276 275 276 275 276 276 276 276 274 274 273 273 271
289 289 287 285 286 288 289 289 288 289 288 288 286 285 285 286 286 286 286 285 284 282 280 279 278 277 276 276 276 276 277 277 276 276 275 274 273 272
293 293 291 288 288 288 289 290 290 289 289 288 286 286 286 286 286 286 286 286 284 283 281 280 279 278 277 275 276 277 278 278 277 276 276 275 275 273
294 295 297 294 291 291 290 290 290 290 291 290 288 286 287 287 288 287 286 286 285 284 282 282 281 279 278 279 279 280 280 280 279 279 278 277 276 275
297 297 297 297 296 295 293 292 291 292 292 292 291 289 289 289 288 288 288 287 286 285 285 283 282 281 280 280 280 281 282 282 281 280 279 278 278 277
298 300 300 299 299 300 299 298 296 295 294 294 293 293 291 291 290 290 288 288 287 286 285 283 283 282 282 282 282 282 282 281 280 280 279 279 280 279
301 300 301 301 302 301 300 299 298 297 297 297 297 295 295 293 292 291 290 290 289 287 286 284 283 283 283 283 283 282 282 281 281 280 280 280 279 279
302 301 301 302 301 301 301 300 300 299 298 298 298 298 296 294 293 292 291 291 290 289 288 287 286 286 286 286 285 284 283 282 282 282 281 281 281 281
303 303 303 303 303 303 302 302 302 301 300 300 299 298 297 296 295 293 293 292 292 291 290 289 288 288 287 287 286 285 285 284 284 283 282 282 283 284
304 304 304 303 302 302 302 303 303 303 301 301 300 299 298 298 296 295 294 293 293 292 292 291 290 289 289 289 288 288 288 287 286 285 285 285 285 285
305 305 305 303 303 303 303 303 304 304 303 302 301 301 300 299 298 297 295 295 294 293 293 292 291 291 291 290 289 289 289 288 288 288 287 287 287 286
305 306 306 305 304 304 304 305 305 305 304 303 302 302 301 301 299 298 297 297 296 295 294 294 294 294 294 293 293 291 291 290 289 289 289 288 288 288
306 307 306 305 305 305 305 306 306 306 305 305 305 304 303 303 301 301 300 299 298 298 297 297 297 297 296 296 295 294 293 292 291 291 291 291 290 290
307 307 308 308 307 307 307 307 308 308 307 307 307 307 306 304 304 303 302 301 301 301 300 300 299 299 298 298 298 297 296 294 292 292 292 293 292 292
307 307 307 308 309 309 309 310 311 310 310 309 308 308 308 307 307 306 305 305 304 304 303 302 301 301 301 301 301 300 299 298 296 295 294 294 295 294
307 308 308 308 309 309 310 311 311 311 310 309 309 309 309 309 309 309 309 308 308 307 307 306 306 305 306 306 306 305 304 303 301 300 298 297 296 295
308 308 309 309 310 310 311 312 312 312 312 311 311 310 310 310 310 310 310 310 309 308 308 308 308 308 308 308 308 308 307 307 305 304 303 301 299 298
308 309 309 310 311 312 313 313 313 312 312 312 312 312 312 312 312 311 311 311 310 310 310 310 311 311 310 310 310 309 309 308 308 307 306 305 304 302
307 308 310 311 312 313 313 313 313 313 312 312 312 313 313 313 312 312 312 311 311 312 312 312 313 314 314 313 313 312 311 310 310 309 308 307 307 306
307 309 310 311 311 312 313 313 313 313 313 312 313 313 313 312 312 312 312 312 313 313 313 314 314 314 315 314 314 314 314 313 312 312 311 310 310 308
Height
5886 5885 5885 5884 5883 5882 5881 5880 5879 5878 5877 5875 5874 5872 5870 5869 5868 5866 5865 5863 5861 5860 5859 5858 5856 5855 5854 5853 5852 5850 5849 5848 5846 5845 5844 5843 5842 5841
5882 5882 5881 5880 5878 5877 5876 5875 5874 5873 5872 5870 5869 5867 5865 5864 5862 5860 5858 5856 5854 5853 5852 5851 5849 5848 5846 5845 5844 5842 5841 5839 5838 5837 5835 5834 5833 5832
5878 5877 5876 5875 5874 5872 5871 5870 5869 5867 5866 5864 5862 5861 5859 5857 5855 5853 5851 5849 5847 5845 5844 5842 5841 5839 5838 5836 5835 5833 5831 5830 5828 5827 5826 5825 5824 5823
5874 5873 5871 5870 5869 5868 5866 5864 5863 5861 5860 5858 5856 5854 5852 5850 5848 5846 5844 5842 5840 5838 5836 5834 5832 5830 5828 5827 5825 5823 5822 5820 5819 5817 5816 5815 5813 5812
5870 5868 5866 5865 5864 5862 5861 5859 5857 5855 5853 5851 5849 5847 5845 5843 5841 5839 5836 5834 5832 5830 5827 5825 5823 5821 5819 5817 5815 5814 5812 5810 5809 5807 5805 5804 5802 5801
5865 5863 5861 5860 5858 5857 5855 5853 5851 5849 5847 5844 5842 5840 5838 5835 5833 5830 5828 5826 5823 5821 5818 5816 5814 5812 5810 5807 5806 5804 5802 5800 5798 5796 5795 5793 5791 5789
5860 5858 5856 5854 5852 5850 5848 5846 5844 5841 5839 5837 5835 5832 5830 5828 5825 5822 5819 5817 5814 5811 5809 5807 5804 5802 5800 5798 5796 5793 5791 5789 5787 5785 5783 5781 5779 5778
5855 5853 5851 5849 5847 5844 5842 5839 5837 5834 5832 5829 5827 5824 5821 5819 5816 5813 5811 5808 5805 5803 5800 5797 5794 5792 5790 5787 5785 5783 5781 5778 5776 5774 5772 5769 5767 5766
5850 5848 5846 5843 5840 5838 5835 5832 5829 5827 5824 5822 5819 5816 5813 5810 5808 5805 5802 5799 5796 5793 5790 5787 5784 5782 5779 5776 5774 5772 5769 5767 5764 5762 5760 5757 5755 5753
5844 5842 5839 5837 5834 5831 5828 5825 5822 5819 5816 5813 5810 5807 5804 5801 5799 5796 5793 5790 5786 5784 5781 5778 5775 5772 5769 5766 5763 5760 5758 5755 5753 5750 5747 5745 5743 5741
5839 5836 5833 5830 5827 5824 5821 5818 5815 5812 5808 5805 5802 5799 5796 5793 5790 5787 5784 5780 5777 5774 5771 5768 5764 5761 5758 5755 5752 5749 5746 5743 5740 5738 5735 5733 5730 5728
5832 5829 5826 5823 5820 5817 5814 5811 5808 5804 5801 5797 5794 5791 5788 5784 5781 5778 5774 5771 5767 5764 5761 5757 5754 5750 5747 5744 5741 5738 5735 5732 5729 5726 5723 5721 5718 5715
5826 5823 5819 5816 5813 5810 5807 5804 5800 5797 5793 5790 5786 5783 5779 5776 5772 5769 5765 5761 5758 5754 5751 5747 5743 5740 5737 5733 5730 5727 5724 5721 5717 5714 5712 5709 5706 5703
5819 5816 5813 5810 5806 5803 5800 5797 5793 5789 5786 5782 5778 5774 5771 5767 5763 5759 5755 5752 5748 5744 5741 5737 5733 5730 5726 5723 5719 5716 5713 5710 5706 5703 5700 5697 5694 5691
5813 5809 5806 5803 5799 5796 5793 5789 5785 5781 5778 5774 5769 5766 5762 5758 5754 5750 5746 5742 5738 5734 5731 5727 5723 5720 5716 5712 5709 5705 5702 5699 5695 5692 5689 5686 5683 5680
5806 5802 5799 5796 5792 5789 5785 5781 5777 5773 5769 5765 5761 5757 5753 5749 5744 5741 5737 5733 5729 5725 5721 5717 5713 5710 5706 5702 5699 5695 5692 5688 5685 5682 5679 5676 5672 5669
5798 5795 5792 5789 5785 5781 5777 5773 5769 5765 5761 5757 5752 5748 5744 5740 5736 5732 5728 5724 5720 5716 5712 5708 5704 5700 5697 5693 5689 5685 5682 5678 5675 5672 5669 5666 5663 5660
5792 5788 5785 5781 5777 5774 5769 5765 5761 5757 5753 5749 5745 5740 5736 5732 5728 5723 5719 5715 5711 5707 5703 5699 5695 5692 5688 5684 5681 5677 5673 5669 5666 5663 5660 5657 5654 5651
5785 5781 5778 5774 5770 5766 5762 5758 5754 5750 5745 5741 5737 5733 5728 5724 5720 5716 5712 5708 5704 5700 5696 5692 5688 5684 5680 5677 5673 5669 5665 5662 5658 5655 5651 5648 5646 5643
5778 5774 5770 5767 5763 5759 5755 5750 5746 5742 5738 5734 5730 5725 5721 5717 5713 5709 5706 5702 5697 5693 5689 5685 5681 5677 5673 5670 5666 5662 5658 5655 5651 5648 5644 5641 5638 5635
5771 5767 5764 5760 5756 5752 5748 5743 5739 5735 5731 5727 5723 5719 5715 5711 5707 5703 5699 5695 5690 5686 5682 5678 5674 5671 5667 5663 5659 5656 5652 5648 5644 5641 5638 5634 5631 5628
5764 5760 5756 5753 5749 5745 5741 5736 5732 5728 5724 5720 5716 5712 5708 5704 5700 5696 5692 5688 5684 5679 5675 5672 5668 5664 5660 5657 5653 5649 5646 5642 5638 5635 5631 5628 5625 5622
5757 5753 5749 5745 5742 5738 5733 5729 5725 5721 5717 5713 5710 5706 5702 5698 5694 5689 5685 5681 5677 5673 5669 5665 5662 5658 5654 5651 5647 5643 5640 5636 5633 5629 5626 5622 5619 5616